Terminal Aerodrome Forecast
Issued by NWS

Home | Current Version | Previous Version | Text Only | Print | Product List | Glossary Off
Versions: 1 2 3 4 5 6 7 8 9 10 11 12 13 14 15 16 17 18 19 20 21 22 23 24 25 26 27 28 29 30 31 32 33 34 35 36 37 38 39 40 41 42

000
FTUS43 KGRB 241100
TAFRHI
TAF
KRHI 241132Z 2412/2512 02005KT 2SM -SN BR SCT005 OVC020
      TEMPO 2412/2414 1SM -SN BR BKN005
     FM241400 01005KT 4SM -SN BR SCT003 OVC009
     FM241800 35006KT P6SM -SN SCT006 OVC012
     FM250000 29005KT P6SM -SN SCT012 OVC020
     FM250600 26007KT P6SM BKN023=

USA.gov is the U.S. government's official web portal to all federal, state and local government web resources and services.